To NAV CANADA Home Page Login to a new session Search on AWWS site Feedback and Comments Disclaimer Vers la page française équivalente Tips FAQ What's new on the site To the Forecasts and Observations / NOTAM section To "File a Flight Plan" website Publications and other links Update of the User's profile FIC Telephone Numbers My Weather Data Folder Route Weather Data Regional Weather Data Local Weather Data To the Forecasts and Observations / NOTAM section
Request Generated 04/01/2015 at 07:59:24 UTC . Weather information available at that time is displayed.

METAR/TAF

EUREKA/NU    

METAR CWEU 010700Z 00000KT 15SM SKC M32/M37 A3033 RMK SLP272=
METAR CWEU 010600Z 00000KT 15SM SKC M32/M37 A3032 RMK SNW CVR/HARD PACK SLP270=

*** REMARK        : Forecast period has ended; this was the last TAF issued
*** REMARQUE : La période de prévision est échue; ceci était le dernier TAF qui a été émis
TAF CYEU 312338Z 0100/0102 ADVISORY OFFSITE VRB03KT P6SM SKC
RMK NXT FCST WILL BE ISSUED AT 011045Z=
Your time UTC time
Weather data provided by Environment Canada and NAV CANADA